Location: Home
(42.5358°N, 72.7383°W)
Time: 14:19:00
(UTC-05:00)

Vanguard 1 - Pass Details

Date: 03 December 2021
Orbit: 652 x 3830 km, 34.2° (Epoch: 19 January)

Event Time Altitude Azimuth Distance (km) Brightness Sun altitude
Rises 01:51:43 0° 257° (WSW) 7,740 - -56.0°
Reaches altitude 10° 01:56:48 10° 255° (WSW) 6,860 - -55.1°
Maximum altitude 02:20:07 67° 179° (S) 3,673 - -51.2°
Exits shadow 02:21:57 66° 157° (SSE) 3,622 12.6 -50.8°
Drops below altitude 10° 02:36:56 10° 102° (ESE) 5,191 14.2 -48.2°
Sets 02:40:10 0° 99° (E) 5,859 14.6 -47.6°
